Date_and_time,latitude,longitude,wind_speed,RelWindDirFrom,WindDirFrom,air_pressure,air_temperature,relative_humidity,Temp,platform_speed_wrt_ground,air_pressure_at_mean_sea_level,platform_orientation
2018-04-28 23:50,50.630445,-96.980755,17.2,23.1,182,988.70,13.4,29,4.95,0.0,1015.33,48.3
2018-04-29 00:00,50.6304466666667,-96.980755,17.4,23.3,184,988.55,13.5,29,4.96,0.0,1015.32,38.0
2018-04-29 00:10,50.6304466666667,-96.9807566666667,16.6,21.0,180,988.39,13.4,29,4.90,0.0,1015.05,38.0
2018-04-29 00:20,50.6304366666667,-96.9808083333333,15.0,20.1,186,988.28,13.5,29,4.83,0.0,1014.96,38.0
2018-04-29 00:30,50.630455,-96.9807766666667,15.3,20.0,183,988.14,13.6,29,4.81,0.0,1014.69,38.0
2018-04-29 00:40,50.6304483333333,-96.980765,15.8,23.6,182,988.07,13.2,30,4.84,0.0,1014.63,38.0
2018-04-29 00:50,50.6304483333333,-96.98076,15.1,20.8,184,988.04,13.2,30,4.87,0.0,1014.58,38.0
2018-04-29 01:00,50.6304466666667,-96.9807566666667,14.5,18.9,180,988.01,12.9,31,4.91,0.0,1014.57,360.0
2018-04-29 01:10,50.6304483333333,-96.9807566666667,13.7,17.3,181,987.99,12.5,31,4.96,0.0,1014.57,360.0
2018-04-29 01:20,50.6304466666667,-96.9807733333333,13.3,18.0,179,987.96,12.6,31,5.00,0.0,1014.55,360.0
2018-04-29 01:30,50.6304433333333,-96.980765,13.3,16.9,168,987.87,11.3,37,5.05,0.0,1014.52,360.0
2018-04-29 01:40,50.630445,-96.9807683333333,13.1,15.1,161,987.78,7.7,50,5.07,0.0,1014.59,360.0
2018-04-29 01:50,50.6304433333333,-96.9807683333333,12.2,13.8,162,987.85,5.7,60,5.08,0.0,1014.76,360.0
2018-04-29 02:00,50.6304583333333,-96.980755,11.5,12.9,165,987.90,5.2,63,5.09,0.0,1014.84,360.0
2018-04-29 02:10,50.63045,-96.9807533333333,11.2,12.6,166,987.95,5.2,64,5.11,0.0,1014.89,360.0
2018-04-29 02:20,50.6304283333333,-96.9807583333333,11.6,12.8,166,987.97,5.0,65,5.13,0.0,1014.91,360.0
2018-04-29 02:30,50.6304383333333,-96.98075,11.9,13.7,164,987.89,4.8,67,5.13,0.0,1014.86,360.0
2018-04-29 02:40,50.63046,-96.9807716666667,11.7,13.4,164,987.86,4.6,68,5.13,0.0,1014.83,360.0
2018-04-29 02:50,50.6304566666667,-96.9807683333333,11.5,12.9,165,987.79,4.4,70,5.13,0.0,1014.79,360.0
2018-04-29 03:00,50.6304433333333,-96.9807666666667,11.5,13.4,163,987.74,4.3,71,5.12,0.0,1014.76,192.6
2018-04-29 03:10,50.63044,-96.9807516666667,11.2,13.2,165,987.74,4.3,71,5.12,0.0,1014.75,192.6
2018-04-29 03:20,50.6304483333333,-96.9807583333333,11.0,12.4,164,987.73,4.3,72,5.11,0.0,1014.80,192.6
2018-04-29 03:30,50.6304483333333,-96.9807533333333,10.9,12.4,167,987.72,4.5,70,5.11,0.0,1014.96,192.6
2018-04-29 03:40,50.6304466666667,-96.980755,10.7,12.3,163,987.69,4.6,70,5.11,0.0,1015.03,192.6
2018-04-29 03:50,50.6304366666667,-96.9807683333333,11.3,12.9,163,987.62,4.2,73,5.11,0.0,1015.01,192.6
2018-04-29 04:00,50.630435,-96.980765,11.0,12.6,161,987.63,3.9,75,5.11,0.0,1015.03,194.5
2018-04-29 04:10,50.6304333333333,-96.980765,11.0,12.8,162,987.60,3.8,75,5.10,0.0,1015.01,194.5
2018-04-29 04:20,50.6304183333333,-96.980775,11.1,13.1,162,987.53,4.0,74,5.08,0.0,1014.94,194.5
2018-04-29 04:30,50.6304283333333,-96.9807633333333,12.0,13.4,161,987.47,4.2,73,5.07,0.0,1014.88,194.5
2018-04-29 04:40,50.6304283333333,-96.98077,11.5,13.1,164,987.48,4.5,70,5.06,0.0,1014.88,194.5
2018-04-29 04:50,50.630435,-96.980755,12.2,14.8,164,987.42,4.9,68,5.06,0.0,1014.80,194.5
2018-04-29 05:00,50.63044,-96.9807633333333,12.5,15.6,165,987.34,4.8,69,5.06,0.0,1014.73,203.5
2018-04-29 05:10,50.63044,-96.9807633333333,12.7,16.1,165,987.29,4.3,72,5.06,0.0,1014.69,203.5
2018-04-29 05:20,50.6304416666667,-96.9807616666667,13.1,15.1,169,987.27,4.4,70,5.05,0.0,1014.66,203.5
2018-04-29 05:30,50.6304416666667,-96.9807633333333,13.0,14.9,168,987.24,4.5,71,5.04,0.0,1014.62,203.5
2018-04-29 05:40,50.6304583333333,-96.9807683333333,12.7,14.5,170,987.23,4.7,69,5.00,0.0,1014.62,203.5
2018-04-29 05:50,50.6304566666667,-96.9807566666667,12.8,17.0,172,987.23,4.9,68,4.95,0.0,1014.63,203.5
2018-04-29 06:00,50.6304516666667,-96.9807533333333,12.2,14.8,175,987.29,5.4,65,4.92,0.0,1014.67,12.6
2018-04-29 06:10,50.6304466666667,-96.9807583333333,12.7,19.2,184,987.32,6.4,59,4.91,0.0,1014.64,12.6
2018-04-29 06:20,50.6304466666667,-96.98076,13.7,19.5,188,987.37,7.8,54,4.89,0.0,1014.61,12.6
2018-04-29 06:30,50.630445,-96.9807566666667,13.0,17.1,187,987.35,7.7,55,4.87,0.0,1014.59,12.6
2018-04-29 06:40,50.6304433333333,-96.980755,13.5,18.5,184,987.24,7.6,55,4.84,0.0,1014.45,12.6
2018-04-29 06:50,50.6304433333333,-96.9807533333333,13.3,18.3,185,987.22,7.4,56,4.80,0.0,1014.45,12.6
2018-04-29 07:00,50.630435,-96.980745,14.6,20.6,188,987.17,7.3,56,4.75,0.0,1014.43,90.0
2018-04-29 07:10,50.63045,-96.9807516666667,16.1,23.8,188,987.13,7.4,55,4.70,0.0,1014.38,90.0
2018-04-29 07:20,50.6304516666667,-96.98075,16.9,22.3,187,986.99,7.4,56,4.69,0.0,1014.23,90.0
2018-04-29 07:30,50.6304533333333,-96.980755,16.5,22.5,187,986.90,7.4,56,4.67,0.0,1014.12,90.0
2018-04-29 07:40,50.630455,-96.9807583333333,16.9,23.2,188,986.78,7.3,56,4.62,0.0,1014.00,90.0
2018-04-29 07:50,50.6304416666667,-96.980735,17.2,22.7,186,986.59,7.4,57,4.58,0.0,1013.78,90.0
2018-04-29 08:00,50.63044,-96.9807416666667,18.3,25.3,184,986.47,7.4,56,4.61,0.0,1013.61,90.0
2018-04-29 08:10,50.6304433333333,-96.9807466666667,17.4,23.8,182,986.35,7.3,57,4.61,0.0,1013.41,90.0
2018-04-29 08:20,50.6304466666667,-96.9807483333333,17.6,24.9,184,986.27,7.5,57,4.57,0.0,1013.33,90.0
2018-04-29 08:30,50.630445,-96.98075,12.5,20.1,176,986.32,5.9,65,4.55,0.0,1013.46,90.0
2018-04-29 08:40,50.630445,-96.9807616666667,13.0,21.4,175,986.19,5.7,66,4.56,0.0,1013.35,90.0
2018-04-29 08:50,50.6304433333333,-96.9807666666667,12.0,15.2,172,986.07,5.0,69,4.56,0.0,1013.27,90.0
2018-04-29 09:00,50.6304433333333,-96.980765,12.7,21.6,177,985.97,5.4,67,4.57,0.0,1013.14,192.6
2018-04-29 09:10,50.6304433333333,-96.9807633333333,13.0,18.6,178,985.86,5.6,67,4.57,0.0,1013.01,192.6
2018-04-29 09:20,50.630445,-96.9807616666667,11.7,18.8,169,985.77,4.9,70,4.58,0.0,1012.95,192.6
2018-04-29 09:30,50.6304433333333,-96.98076,12.5,15.9,167,985.66,4.3,73,4.61,0.0,1012.87,192.6
2018-04-29 09:40,50.6304433333333,-96.9807583333333,12.2,15.8,167,985.61,3.7,77,4.66,0.0,1012.85,192.6
2018-04-29 09:50,50.6304433333333,-96.9807566666667,11.8,16.1,168,985.49,3.3,80,4.70,0.0,1012.75,192.6
2018-04-29 10:00,50.630445,-96.9807566666667,11.9,15.8,171,985.45,3.7,77,4.74,0.0,1012.69,299.2
2018-04-29 10:10,50.6304283333333,-96.9807816666667,11.5,13.9,176,985.45,4.5,74,4.77,0.0,1012.64,299.2
2018-04-29 10:20,50.63044,-96.9807533333333,12.0,14.2,177,985.30,5.3,70,4.78,0.0,1012.53,299.2
2018-04-29 10:30,50.63044,-96.980755,12.5,15.2,174,985.18,5.1,72,4.78,0.0,1012.42,299.2
2018-04-29 10:40,50.6304433333333,-96.9807566666667,12.3,14.0,173,985.08,4.6,74,4.76,0.0,1012.38,299.2
2018-04-29 10:50,50.63044,-96.9807566666667,12.9,14.2,173,984.89,4.3,76,4.73,0.0,1012.18,299.2
2018-04-29 11:00,50.6304516666667,-96.9807483333333,13.1,15.4,174,984.78,4.4,76,4.68,0.0,1012.05,345.5
2018-04-29 11:10,50.6304516666667,-96.9807566666667,14.6,16.9,174,984.65,5.0,73,4.68,0.0,1011.92,345.5
2018-04-29 11:20,50.6304366666667,-96.980755,13.9,17.3,169,984.49,5.0,73,4.68,0.0,1011.79,345.5
2018-04-29 11:30,50.6304383333333,-96.980755,13.0,15.9,158,984.30,3.4,82,4.65,0.0,1011.70,345.5
2018-04-29 11:40,50.6304383333333,-96.9807566666667,12.7,14.9,157,984.17,3.1,83,4.58,0.0,1011.61,345.5
2018-04-29 11:50,50.6304383333333,-96.9807566666667,11.4,13.6,156,984.14,3.1,84,4.52,0.0,1011.55,345.5
2018-04-29 12:00,50.63044,-96.9807566666667,13.9,15.8,150,983.93,2.6,87,4.51,0.0,1011.32,90.0
2018-04-29 12:10,50.6304383333333,-96.980755,14.8,17.7,151,983.82,2.8,86,4.52,0.0,1011.16,90.0
2018-04-29 12:20,50.6304366666667,-96.9807566666667,16.6,19.5,156,983.74,2.9,86,4.53,0.0,1011.08,90.0
2018-04-29 12:30,50.630435,-96.980755,14.5,18.5,160,983.83,2.5,89,4.51,0.0,1011.22,90.0
2018-04-29 12:40,50.6304366666667,-96.980755,14.8,18.2,159,983.75,2.4,91,4.45,0.0,1011.15,90.0
2018-04-29 12:50,50.6304366666667,-96.980755,12.8,17.6,162,983.76,2.5,91,4.40,0.0,1011.16,90.0
2018-04-29 13:00,50.6304466666667,-96.9807483333333,13.3,17.6,164,983.64,2.5,90,4.40,0.0,1011.00,12.6
2018-04-29 13:10,50.6304433333333,-96.98075,14.0,18.0,165,983.54,2.6,89,4.40,0.0,1010.89,12.6
2018-04-29 13:20,50.630445,-96.9807516666667,14.4,18.5,162,983.42,2.7,88,4.44,0.0,1010.85,12.6
2018-04-29 13:30,50.6304433333333,-96.9807516666667,15.1,18.6,160,983.27,2.8,88,4.45,0.0,1010.70,12.6
2018-04-29 13:40,50.6304416666667,-96.9807533333333,16.6,19.5,157,982.91,3.0,86,4.43,0.0,1010.33,12.6
2018-04-29 13:50,50.6304583333333,-96.980765,17.0,23.2,157,982.64,3.5,82,4.44,0.0,1010.05,12.6
2018-04-29 14:00,50.63045,-96.980765,15.5,19.6,162,982.53,3.8,79,4.47,0.0,1009.90,270.0
2018-04-29 14:10,50.6304516666667,-96.9807616666667,16.8,30.5,168,982.37,5.2,69,4.52,0.0,1009.67,270.0
2018-04-29 14:20,50.6304483333333,-96.98076,23.3,29.4,182,982.16,8.8,50,4.58,0.0,1009.30,270.0
2018-04-29 14:30,50.6304483333333,-96.9807583333333,22.8,33.2,184,981.98,10.0,46,4.59,0.0,1009.05,270.0
2018-04-29 14:40,50.63045,-96.9807583333333,23.1,32.0,185,981.77,10.6,44,4.65,0.0,1008.81,270.0
2018-04-29 14:50,50.63045,-96.9807583333333,23.7,31.3,183,981.60,11.0,43,4.70,0.0,1008.61,270.0
2018-04-29 15:00,50.63045,-96.9807583333333,21.8,30.3,180,981.44,11.2,42,4.71,0.0,1008.43,360.0
2018-04-29 15:10,50.6304516666667,-96.9807583333333,20.3,29.2,181,981.39,11.5,42,4.72,0.0,1008.36,360.0
2018-04-29 15:20,50.63045,-96.980755,20.9,31.4,184,981.27,11.5,41,4.70,0.0,1008.23,360.0
2018-04-29 15:30,50.6304483333333,-96.9807583333333,17.8,25.3,185,981.28,11.6,42,4.68,0.0,1008.23,360.0
2018-04-29 15:40,50.6304483333333,-96.9807566666667,21.8,30.1,183,981.12,12.4,39,4.67,0.0,1008.00,360.0
2018-04-29 15:50,50.6304466666667,-96.9807533333333,20.3,29.3,185,981.15,12.3,40,4.66,0.0,1008.02,360.0
2018-04-29 16:00,50.6304283333333,-96.980715,24.1,33.3,181,980.90,13.0,38,4.64,0.0,1007.66,136.2
2018-04-29 16:10,50.6304483333333,-96.9807383333333,23.4,31.0,182,980.75,13.1,38,4.62,0.0,1007.33,136.2
2018-04-29 16:20,50.6304516666667,-96.9807416666667,20.1,28.5,175,980.65,13.0,39,4.64,0.0,1007.18,136.2
2018-04-29 16:30,50.63045,-96.9807416666667,19.0,27.4,169,980.54,12.3,41,4.65,0.0,1007.07,136.2
2018-04-29 16:40,50.63045,-96.9807433333333,20.6,26.9,169,980.38,12.5,40,4.67,0.0,1006.88,136.2
2018-04-29 16:50,50.6304483333333,-96.9807433333333,18.6,25.9,163,980.20,11.8,43,4.69,0.0,1006.72,136.2
2018-04-29 17:00,50.6304533333333,-96.980755,19.1,23.1,158,979.99,9.9,48,4.70,0.0,1006.58,90.0
2018-04-29 17:10,50.6304366666667,-96.9807583333333,18.5,21.2,156,979.84,9.7,49,4.72,0.0,1006.43,90.0
2018-04-29 17:20,50.6304366666667,-96.980755,16.3,20.2,158,979.65,9.0,51,4.73,0.0,1006.27,90.0
2018-04-29 17:30,50.6304066666667,-96.98073,18.4,20.7,154,979.43,9.1,51,4.75,0.0,1006.00,90.0
2018-04-29 17:40,50.6304466666667,-96.9807633333333,17.8,20.1,157,979.24,8.6,53,4.75,0.0,1005.82,90.0
2018-04-29 17:50,50.6304433333333,-96.98076,17.8,20.4,159,978.98,8.8,52,4.76,0.0,1005.52,90.0
2018-04-29 18:00,50.6304433333333,-96.9807516666667,19.1,24.0,158,978.73,8.8,52,4.79,0.0,1005.26,360.0
2018-04-29 18:10,50.630445,-96.9807566666667,18.7,23.2,157,978.54,9.0,52,4.80,0.0,1005.06,360.0
2018-04-29 18:20,50.6304433333333,-96.9807516666667,19.3,23.8,157,978.40,9.4,51,4.82,0.0,1004.93,360.0
2018-04-29 18:30,50.6304383333333,-96.9807516666667,20.9,24.3,151,978.05,10.0,49,4.83,0.0,1004.53,360.0
2018-04-29 18:40,50.6304383333333,-96.980755,18.4,25.7,155,977.88,9.4,52,4.86,0.0,1004.42,360.0
2018-04-29 18:50,50.6304383333333,-96.98073,17.7,23.5,156,977.64,9.2,52,4.90,0.0,1004.27,360.0
2018-04-29 19:00,50.63044,-96.980745,18.9,23.3,158,977.45,9.2,52,4.92,0.0,1004.08,317.0
2018-04-29 19:10,50.6304366666667,-96.9807433333333,17.8,22.7,158,977.39,9.6,51,4.91,0.0,1004.04,317.0
2018-04-29 19:20,50.6304366666667,-96.980745,16.8,22.9,159,977.46,9.4,52,4.94,0.0,1004.12,317.0
2018-04-29 19:30,50.6304333333333,-96.9807466666667,19.8,23.9,158,977.16,10.2,50,4.95,0.0,1003.80,317.0
2018-04-29 19:40,50.630435,-96.9807483333333,20.7,28.3,157,976.88,11.3,46,4.94,0.0,1003.44,317.0
2018-04-29 19:50,50.630435,-96.9807516666667,21.9,31.4,156,976.65,12.5,44,4.95,0.0,1003.15,317.0
2018-04-29 20:00,50.6304366666667,-96.9807533333333,18.4,25.1,161,976.86,11.8,46,4.96,0.0,1003.39,156.5
2018-04-29 20:10,50.6304383333333,-96.9807533333333,17.3,22.6,162,976.96,11.8,46,4.96,0.0,1003.47,156.5
2018-04-29 20:20,50.6304516666667,-96.98075,24.9,35.5,175,976.57,16.1,35,4.97,0.0,1002.84,156.5
2018-04-29 20:30,50.63044,-96.9807466666667,27.8,34.3,177,976.28,19.0,31,4.96,0.0,1002.44,156.5
2018-04-29 20:40,50.63044,-96.9807533333333,27.9,36.2,177,976.18,19.2,30,4.98,0.0,1002.34,156.5
2018-04-29 20:50,50.63044,-96.9807533333333,26.7,35.0,177,976.12,18.7,31,5.00,0.0,1002.30,156.5
2018-04-29 21:00,50.63044,-96.9807533333333,29.5,40.0,181,976.02,19.4,29,5.00,0.0,1002.14,90.0
2018-04-29 21:10,50.6304383333333,-96.9807533333333,25.8,36.1,180,975.90,19.6,30,5.01,0.0,1002.03,90.0
2018-04-29 21:20,50.6304383333333,-96.9807566666667,28.6,38.3,189,975.88,19.6,30,5.01,0.0,1001.96,90.0
2018-04-29 21:30,50.63044,-96.9807566666667,26.6,35.3,190,975.86,19.7,30,5.00,0.0,1001.88,90.0
2018-04-29 21:40,50.6304416666667,-96.9807583333333,26.1,36.5,187,975.83,19.6,30,4.99,0.0,1001.81,90.0
2018-04-29 21:50,50.6304416666667,-96.9807583333333,28.3,37.7,186,975.74,19.5,30,4.98,0.0,1001.76,90.0
2018-04-29 22:00,50.630445,-96.9807466666667,26.1,35.0,185,975.73,19.6,30,4.96,0.0,1001.73,90.0
2018-04-29 22:10,50.6304366666667,-96.9807166666667,27.8,39.6,191,975.68,19.8,30,4.95,0.0,1001.48,90.0
2018-04-29 22:20,50.6304366666667,-96.9807616666667,27.5,36.3,188,975.60,19.9,30,4.94,0.0,1001.27,90.0
2018-04-29 22:30,50.6304433333333,-96.9807633333333,28.2,34.5,188,975.56,19.6,30,4.92,0.0,1001.23,90.0
2018-04-29 22:40,50.630455,-96.98078,25.0,32.7,186,975.58,19.4,31,4.90,0.0,1001.29,90.0
2018-04-29 22:50,50.6304466666667,-96.9807566666667,23.8,32.4,181,975.58,19.5,31,4.89,0.0,1001.25,90.0
2018-04-29 23:00,50.6304466666667,-96.9807533333333,23.0,29.7,179,975.55,19.2,31,4.92,0.0,1001.21,360.0
2018-04-29 23:10,50.6304433333333,-96.9807566666667,22.2,30.9,174,975.46,18.8,32,4.97,0.0,1001.14,360.0
2018-04-29 23:20,50.630445,-96.98076,18.9,25.7,167,975.38,17.3,36,5.01,0.0,1001.13,360.0
2018-04-29 23:30,50.6304433333333,-96.9807583333333,22.2,31.8,172,975.24,17.1,36,5.02,0.0,1000.99,360.0
2018-04-29 23:40,50.6304433333333,-96.98076,19.4,27.8,169,975.13,17.1,36,5.04,0.0,1000.89,360.0
2018-04-29 23:50,50.630445,-96.9807566666667,20.5,30.2,167,974.98,16.8,37,5.05,0.0,1000.74,360.0
